Home   Weather   Stassfurt   Past weeks

Flag for Germany Past Weather in Stassfurt, Saxony-Anhalt, Germany — Yesterday and Last 2 Weeks

Now
41 °F

Clear.


Feels Like: 39 °F
Forecast: 32 / 51 °F
Wind: 3 mph from South

Location: Leipzig-Schkeuditz

Current Time: Apr 26, 2017 at 9:39:13 pm

Latest Report: Apr 26, 2017 at 9:20 pm


Visibility: 10 mi

Pressure: 29.89 "Hg

Humidity: 70%

Dew Point: 32 °F

Location of StassfurtLocation

Past Weather in Stassfurt — Graph

°F

Stassfurt Temperature Yesterday

Maximum temperature yesterday: 52 °F (at 5:50 pm)
Minimum temperature yesterday: 37 °F (at 11:50 pm)
Average temperature yesterday: 45 °F

High & Low Weather Summary for the Past Weeks

 TemperatureHumidityPressure
High59 °F (Apr 24, 4:50 pm)100% (Apr 12, 10:50 pm)30.60 "Hg (Apr 12, 10:50 pm)
Low28 °F (Apr 20, 3:50 am)37% (Apr 25, 6:50 pm)29.59 "Hg (Apr 25, 5:50 am)
Average44 °F71%30.06 "Hg
* Reported Apr 11 7:20 pm — Apr 26 7:50 pm, Stassfurt, Weather by CustomWeather, © 2017

Note: Actual official high and low records may vary slightly from our data, if they occured in-between our weather recording intervals... More about our weather records

Advertising

Stassfurt Weather History for the Previous 24 Hours

Scroll right to see more
 ConditionsComfort  
Time TempWeatherWind HumidityBarometerVisibility
7:50 pm
Wed, Apr 26
46 °FSunny.3 mph50%29.89 "Hg10 mi
7:20 pm48 °FPassing clouds.3 mph46%29.89 "HgN/A
6:50 pm48 °FSunny.7 mph46%29.89 "Hg10 mi
6:20 pm48 °FScattered clouds.5 mph46%29.86 "HgN/A
5:50 pm48 °FScattered clouds.7 mph46%29.86 "HgN/A
5:20 pm50 °FScattered clouds.7 mph43%29.86 "HgN/A
4:50 pm48 °FScattered clouds.5 mph43%29.86 "HgN/A
4:20 pm48 °FScattered clouds.5 mph43%29.86 "HgN/A
3:50 pm52 °FScattered clouds.5 mph38%29.86 "HgN/A
3:20 pm50 °FScattered clouds.3 mph43%29.86 "HgN/A
2:50 pm50 °FScattered clouds.5 mph40%29.86 "HgN/A
2:20 pm48 °FPartly sunny.3 mph46%29.86 "HgN/A
1:50 pm48 °FPartly sunny.2 mph50%29.86 "HgN/A
1:20 pm46 °FPartly sunny.6 mph50%29.86 "HgN/A
12:50 pm48 °FPartly sunny.3 mph50%29.86 "HgN/A
11:50 am46 °FScattered clouds.6 mph50%29.86 "HgN/A
11:20 am46 °FScattered clouds.3 mph50%29.86 "HgN/A
10:50 am46 °FScattered clouds.5 mph50%29.86 "HgN/A
10:20 am45 °FPartly sunny.5 mph57%29.86 "HgN/A
9:50 am45 °FPassing clouds.5 mph66%29.86 "HgN/A
9:20 am43 °FBroken clouds.2 mph71%29.86 "HgN/A
8:50 am41 °FBroken clouds.2 mph76%29.86 "HgN/A
8:20 am41 °FBroken clouds.2 mph76%29.86 "HgN/A
7:50 am39 °FBroken clouds.3 mph81%29.83 "HgN/A
7:20 am37 °FPartly sunny.2 mph87%29.83 "HgN/A
6:50 am36 °FSunny.2 mph93%29.83 "Hg10 mi
6:20 am37 °FSunny.2 mph87%29.83 "Hg10 mi
5:50 am37 °FClear.1 mph81%29.83 "Hg10 mi
5:20 am37 °FClear.2 mph81%29.83 "Hg10 mi
4:50 am36 °FPassing clouds.5 mph87%29.80 "HgN/A
4:20 am36 °FClear.3 mph87%29.80 "Hg10 mi
3:50 am34 °FClear.6 mph93%29.80 "Hg10 mi
3:20 am36 °FClear.3 mph87%29.80 "Hg10 mi
2:50 am36 °FClear.5 mph87%29.80 "Hg10 mi
2:20 am37 °FClear.3 mph81%29.80 "Hg10 mi
1:50 am37 °FClear.5 mph81%29.80 "Hg10 mi
1:20 am36 °FClear.5 mph87%29.80 "Hg10 mi
12:50 am36 °FClear.5 mph87%29.80 "Hg10 mi
12:20 am36 °FClear.3 mph87%29.80 "Hg10 mi
11:50 pm
Tue, Apr 25
37 °FClear.3 mph81%29.80 "Hg10 mi
11:20 pm39 °FClear.7 mph75%29.80 "Hg10 mi
10:50 pm39 °FClear.6 mph75%29.80 "Hg10 mi
10:20 pm41 °FClear.8 mph76%29.80 "Hg10 mi
9:50 pm41 °FClear.8 mph76%29.80 "Hg10 mi
9:20 pm43 °FClear.7 mph71%29.77 "Hg10 mi
Weather by CustomWeather, © 2017

See weather overviewHow to use our weather pages